This is the latest recevied weather packets stored in our database for station/object WX9WTF. If no packets are shown the sender has not sent any weather packets the latest 10 day(s).
| Time | Temp. | Humidity | Pressure | Rain* | Wind** | Luminosity | Snow |
|---|---|---|---|---|---|---|---|
| 1778195596 | 20° C | 48% | 1011.8 hPa | 0 mm | - | 135 W/m² | - |
| 1778195292 | 20.56° C | 48% | 1012.1 hPa | 0 mm | - | 172 W/m² | - |
| 1778194990 | 20° C | 49% | 1012 hPa | 0 mm | - | 232 W/m² | - |
| 1778194689 | 20° C | 48% | 1012 hPa | 0 mm | - | 177 W/m² | - |
| 1778194386 | 20° C | 48% | 1012.1 hPa | 0 mm | - | 218 W/m² | - |
| 1778194082 | 20° C | 48% | 1012.1 hPa | 0 mm | - | 198 W/m² | - |
| 1778193779 | 20.56° C | 51% | 1012.2 hPa | 0 mm | - | 209 W/m² | - |
| 1778193475 | 20° C | 49% | 1012.4 hPa | 0 mm | - | 218 W/m² | - |
| 1778193171 | 20.56° C | 46% | 1012.2 hPa | 0 mm | - | 219 W/m² | - |
| 1778192869 | 20.56° C | 48% | 1012.2 hPa | 0 mm | - | 229 W/m² | - |
| 1778192564 | 20.56° C | 45% | 1012.1 hPa | 0 mm | - | 308 W/m² | - |
| 1778192262 | 21.11° C | 45% | 1012.2 hPa | 0 mm | - | 303 W/m² | - |
| 1778191958 | 20.56° C | 46% | 1012.3 hPa | 0 mm | - | 339 W/m² | - |
| 1778191655 | 21.67° C | 47% | 1012.4 hPa | 0 mm | - | 238 W/m² | - |
| 1778191353 | 21.67° C | 45% | 1012.3 hPa | 0 mm | - | 524 W/m² | - |
| 1778191049 | 21.67° C | 49% | 1012.5 hPa | 0 mm | - | 317 W/m² | - |
| 1778190747 | 21.67° C | 48% | 1012.5 hPa | 0 mm | - | 515 W/m² | - |
| 1778190443 | 21.67° C | 47% | 1012.6 hPa | 0 mm | - | 451 W/m² | - |
| 1778190140 | 21.11° C | 47% | 1012.6 hPa | 0 mm | - | 483 W/m² | - |
| 1778189836 | 21.67° C | 43% | 1012.7 hPa | 0 mm | - | 540 W/m² | - |
| 1778189533 | 21.11° C | 46% | 1012.7 hPa | 0 mm | - | 579 W/m² | - |
| 1778189229 | 21.67° C | 47% | 1012.8 hPa | 0 mm | - | 588 W/m² | - |
| 1778188926 | 21.67° C | 49% | 1012.8 hPa | 0 mm | - | 603 W/m² | - |
| 1778188623 | 21.11° C | 47% | 1012.8 hPa | 0 mm | - | 614 W/m² | - |
| 1778188318 | 20.56° C | 48% | 1012.9 hPa | 0 mm | - | 625 W/m² | - |
* Rain latest hour (hover to see other rain measurements)
** Current wind speed in m/s (hover to see current wind gust speed)